Tracking 25378 objects as of 22-Jan-2022
HD Live streaming from Space Station
objects crossing your sky now

OPS 6431

Track OPS 6431 now!
10-day predictions
OPS 6431 is classified as:


NORAD ID: 8818
Int'l Code: 1976-038A
Perigee: 541.9 km
Apogee: 1,334.2 km
Inclination: 63.3 °
Period: 103.6 minutes
Semi major axis: 7309 km
RCS: Unknown
Launch date: April 30, 1976
Source: United States (US)
Launch site: AIR FORCE WESTERN TEST RANGE (AFWTR)
aabbcc
Your satellite tracking list
Your tracking list is empty




NASA's NSSDC Master Catalog

Two Line Element Set (TLE):
1 08818U 76038A   22020.74310482 0.00000400  00000-0  97906-4 0    06
2 08818  63.3266 245.2979 0542000 160.3522 199.6478 13.89336280    08
Source of the keplerian elements: McCants